| time (UTC) | temp C | wind direction | speed KPH | gust KPH | rain 1hr cm | rain 24hr cm | rain mn cm | humidity % | barometer mb |
| 20260505000358 | 18 | 229 | 12.9 | 19.3 | 0.00 | 0.81 | 0.58 | 54 | 1017.4 |
| 20260504235854 | 18 | 216 | 11.3 | 24.1 | 0.00 | 0.81 | 0.58 | 52 | 1017.3 |
| 20260504235352 | 18 | 223 | 14.5 | 25.7 | 0.00 | 0.81 | 0.58 | 50 | 1017.3 |
| 20260504234347 | 18 | 217 | 12.9 | 25.7 | 0.00 | 0.81 | 0.58 | 52 | 1017.2 |
| 20260504232336 | 17 | 222 | 16.1 | 25.7 | 0.00 | 0.81 | 0.58 | 54 | 1017.3 |
| 20260504231835 | 17 | 228 | 17.7 | 29.0 | 0.00 | 0.81 | 0.58 | 56 | 1017.4 |
| 20260504231332 | 17 | 226 | 14.5 | 22.5 | 0.00 | 0.81 | 0.58 | 61 | 1017.5 |
| 20260504230829 | 17 | 226 | 12.9 | 20.9 | 0.00 | 0.81 | 0.58 | 61 | 1017.5 |
| 20260504230326 | 17 | 223 | 17.7 | 32.2 | 0.00 | 0.81 | 0.58 | 60 | 1017.4 |
| 20260504225321 | 17 | 223 | 16.1 | 29.0 | 0.00 | 0.81 | 0.58 | 63 | 1017.4 |
| 20260504224819 | 17 | 220 | 16.1 | 29.0 | 0.00 | 0.81 | 0.58 | 64 | 1017.3 |
| 20260504222807 | 17 | 221 | 12.9 | 22.5 | 0.00 | 0.81 | 0.58 | 80 | 1016.9 |
| 20260504222306 | 17 | 226 | 14.5 | 24.1 | 0.00 | 0.81 | 0.58 | 84 | 1016.9 |
| 20260504221805 | 17 | 235 | 14.5 | 22.5 | 0.00 | 0.81 | 0.58 | 88 | 1016.9 |
| 20260504220800 | 17 | 231 | 17.7 | 25.7 | 0.00 | 0.81 | 0.58 | 89 | 1016.6 |
| 20260504220258 | 17 | 238 | 14.5 | 20.9 | 0.00 | 0.81 | 0.58 | 92 | 1016.5 |
| 20260504215756 | 17 | 236 | 14.5 | 25.7 | 0.00 | 0.81 | 0.58 | 91 | 1016.4 |
| 20260504215255 | 17 | 237 | 16.1 | 27.4 | 0.00 | 0.81 | 0.58 | 92 | 1016.2 |
| 20260504214753 | 17 | 236 | 14.5 | 25.7 | 0.00 | 0.81 | 0.58 | 95 | 1016.1 |
| 20260504214252 | 17 | 234 | 11.3 | 19.3 | 0.00 | 0.81 | 0.58 | 97 | 1016.0 |
| 20260504212743 | 17 | 239 | 11.3 | 20.9 | 0.00 | 0.81 | 0.58 | 99 | 1015.8 |
| 20260504212242 | 17 | 239 | 14.5 | 20.9 | 0.00 | 0.81 | 0.58 | 99 | 1015.8 |
| 20260504211740 | 17 | 235 | 12.9 | 22.5 | 0.00 | 0.81 | 0.58 | 100 | 1015.6 |
| 20260504211238 | 17 | 235 | 14.5 | 24.1 | 0.00 | 0.81 | 0.58 | 100 | 1015.5 |
| 20260504205729 | 17 | 241 | 11.3 | 17.7 | 0.00 | 0.81 | 0.58 | 100 | 1015.5 |
| 20260504205226 | 17 | 241 | 12.9 | 20.9 | 0.00 | 0.81 | 0.58 | 100 | 1015.6 |
| 20260504204724 | 17 | 234 | 12.9 | 19.3 | 0.00 | 0.81 | 0.58 | 100 | 1015.6 |
| 20260504204222 | 17 | 240 | 12.9 | 19.3 | 0.00 | 0.81 | 0.58 | 100 | 1015.5 |
| 20260504203720 | 17 | 244 | 12.9 | 24.1 | 0.00 | 0.81 | 0.58 | 100 | 1015.3 |
| 20260504202213 | 17 | 235 | 9.7 | 16.1 | 0.00 | 0.81 | 0.58 | 100 | 1015.1 |
| 20260504201710 | 17 | 241 | 11.3 | 20.9 | 0.00 | 0.81 | 0.58 | 100 | 1015.0 |
| 20260504201209 | 17 | 250 | 12.9 | 20.9 | 0.00 | 0.81 | 0.58 | 100 | 1015.0 |
| 20260504200708 | 17 | 240 | 14.5 | 24.1 | 0.00 | 0.81 | 0.58 | 100 | 1014.9 |
| 20260504200207 | 17 | 243 | 16.1 | 32.2 | 0.00 | 0.81 | 0.58 | 100 | 1014.7 |
| 20260504195704 | 17 | 250 | 16.1 | 25.7 | 0.03 | 0.81 | 0.58 | 100 | 1014.8 |
| 20260504195203 | 17 | 251 | 17.7 | 30.6 | 0.03 | 0.81 | 0.58 | 100 | 1014.8 |
| 20260504194701 | 17 | 251 | 17.7 | 29.0 | 0.03 | 0.81 | 0.58 | 100 | 1014.7 |
| 20260504194159 | 17 | 247 | 12.9 | 27.4 | 0.03 | 0.81 | 0.58 | 100 | 1014.6 |
| 20260504193657 | 17 | 255 | 16.1 | 29.0 | 0.03 | 0.81 | 0.58 | 100 | 1014.6 |
| 20260504193156 | 17 | 250 | 17.7 | 30.6 | 0.03 | 0.81 | 0.58 | 100 | 1014.3 |
| 20260504192653 | 17 | 257 | 17.7 | 29.0 | 0.03 | 0.81 | 0.58 | 100 | 1014.1 |
| 20260504192152 | 17 | 262 | 17.7 | 30.6 | 0.03 | 0.81 | 0.58 | 100 | 1014.1 |
| 20260504191651 | 17 | 264 | 12.9 | 33.8 | 0.03 | 0.81 | 0.58 | 100 | 1014.0 |
| 20260504191149 | 17 | 267 | 14.5 | 27.4 | 0.03 | 0.81 | 0.58 | 100 | 1014.0 |
| 20260504190647 | 17 | 270 | 14.5 | 29.0 | 0.03 | 0.81 | 0.58 | 100 | 1014.1 |
| 20260504185642 | 17 | 264 | 11.3 | 25.7 | 0.00 | 0.79 | 0.56 | 100 | 1013.9 |
| 20260504185141 | 17 | 265 | 11.3 | 19.3 | 0.00 | 0.79 | 0.56 | 100 | 1013.9 |
| 20260504184640 | 17 | 263 | 9.7 | 19.3 | 0.00 | 0.79 | 0.56 | 100 | 1013.9 |
| 20260504184139 | 17 | 261 | 12.9 | 19.3 | 0.00 | 0.79 | 0.56 | 100 | 1013.9 |
| 20260504183638 | 17 | 274 | 9.7 | 16.1 | 0.00 | 0.79 | 0.56 | 100 | 1014.0 |
| 20260504183136 | 17 | 267 | 9.7 | 17.7 | 0.00 | 0.79 | 0.56 | 100 | 1013.9 |
| 20260504182635 | 17 | 268 | 9.7 | 19.3 | 0.00 | 0.79 | 0.56 | 100 | 1013.9 |
| 20260504182134 | 17 | 254 | 12.9 | 19.3 | 0.00 | 0.79 | 0.56 | 100 | 1013.8 |
| 20260504181632 | 17 | 254 | 11.3 | 19.3 | 0.00 | 0.79 | 0.56 | 100 | 1013.8 |
| 20260504180123 | 17 | 252 | 14.5 | 20.9 | 0.03 | 0.79 | 0.56 | 100 | 1013.8 |
| 20260504175621 | 17 | 247 | 14.5 | 24.1 | 0.03 | 0.79 | 0.56 | 100 | 1014.0 |
| 20260504175118 | 17 | 258 | 12.9 | 19.3 | 0.03 | 0.79 | 0.56 | 100 | 1014.0 |
| 20260504174113 | 17 | 258 | 12.9 | 19.3 | 0.05 | 0.79 | 0.56 | 100 | 1013.9 |
| 20260504173612 | 17 | 242 | 9.7 | 16.1 | 0.10 | 0.79 | 0.56 | 100 | 1013.8 |
| 20260504172607 | 17 | 236 | 8.0 | 12.9 | 0.23 | 0.79 | 0.56 | 100 | 1013.8 |
| 20260504171602 | 17 | 263 | 9.7 | 12.9 | 0.33 | 0.79 | 0.56 | 100 | 1014.0 |
| 20260504170558 | 17 | 266 | 8.0 | 11.3 | 0.36 | 0.79 | 0.56 | 100 | 1014.0 |
| 20260504151011 | 18 | 267 | 9.7 | 16.1 | 0.00 | 0.23 | 0.00 | 100 | 1013.8 |
| 20260504150508 | 18 | 266 | 9.7 | 16.1 | 0.00 | 0.23 | 0.00 | 100 | 1013.8 |
| 20260504140949 | 18 | 241 | 8.0 | 11.3 | 0.03 | 0.23 | 0.00 | 100 | 1013.6 |
| 20260504140447 | 18 | 255 | 11.3 | 16.1 | 0.03 | 0.23 | 0.00 | 100 | 1013.9 |
| 20260504130413 | 19 | 319 | 4.8 | 6.4 | 0.00 | 0.23 | 0.23 | 100 | 1014.0 |
| 20260504110323 | 19 | 205 | 6.4 | 8.0 | 0.08 | 0.20 | 0.20 | 100 | 1015.2 |
| 20260504100300 | 20 | 263 | 6.4 | 9.7 | 0.10 | 0.13 | 0.13 | 97 | 1015.2 |
| 20260504081213 | 21 | 9 | 11.3 | 16.1 | 0.00 | 0.00 | 0.00 | 89 | 1014.1 |
| 20260504080712 | 21 | 13 | 11.3 | 16.1 | 0.00 | 0.00 | 0.00 | 89 | 1014.0 |
| 20260504080211 | 21 | 15 | 11.3 | 16.1 | 0.00 | 0.00 | 0.00 | 89 | 1014.0 |
| 20260504070146 | 21 | 50 | 16.1 | 22.5 | 0.00 | 0.00 | 0.00 | 89 | 1013.4 |
| 20260504060126 | 22 | 51 | 19.3 | 27.4 | 0.00 | 0.00 | 0.00 | 83 | 1013.2 |
| 20260504050605 | 23 | 63 | 22.5 | 30.6 | 0.00 | 0.00 | 0.00 | 75 | 1013.1 |
| 20260504050103 | 23 | 66 | 20.9 | 27.4 | 0.00 | 0.00 | 0.00 | 75 | 1013.1 |
| 20260504045602 | 23 | 65 | 20.9 | 29.0 | 0.00 | 0.00 | 0.00 | 74 | 1013.1 |
| 20260504045101 | 23 | 71 | 20.9 | 27.4 | 0.00 | 0.00 | 0.00 | 73 | 1013.2 |
| 20260504044558 | 23 | 72 | 22.5 | 25.7 | 0.00 | 0.00 | 0.00 | 74 | 1013.2 |
| 20260504043421 | 23 | 73 | 20.9 | 25.7 | 0.00 | 0.00 | 0.00 | 72 | 1013.2 |
| 20260504042920 | 23 | 81 | 17.7 | 25.7 | 0.00 | 0.00 | 0.00 | 71 | 1013.2 |
| 20260504042419 | 23 | 77 | 17.7 | 24.1 | 0.00 | 0.00 | 0.00 | 72 | 1013.3 |
| 20260504041414 | 23 | 59 | 17.7 | 24.1 | 0.00 | 0.00 | 0.00 | 72 | 1013.5 |
| 20260504040126 | 23 | 64 | 20.9 | 25.7 | 0.00 | 0.00 | 0.00 | 70 | 1013.5 |
| 20260504035624 | 24 | 64 | 20.9 | 27.4 | 0.00 | 0.00 | 0.00 | 67 | 1013.5 |
| 20260504035121 | 25 | 60 | 19.3 | 24.1 | 0.00 | 0.00 | 0.00 | 63 | 1013.5 |
| 20260504034620 | 26 | 56 | 17.7 | 22.5 | 0.00 | 0.00 | 0.00 | 64 | 1013.5 |
| 20260504034117 | 25 | 54 | 17.7 | 22.5 | 0.00 | 0.00 | 0.00 | 63 | 1013.6 |
| 20260504033615 | 25 | 53 | 16.1 | 22.5 | 0.00 | 0.00 | 0.00 | 64 | 1013.6 |
| 20260504033114 | 26 | 53 | 17.7 | 24.1 | 0.00 | 0.00 | 0.00 | 63 | 1013.6 |
| 20260504032613 | 26 | 42 | 12.9 | 22.5 | 0.00 | 0.00 | 0.00 | 60 | 1013.8 |
| 20260504032112 | 26 | 32 | 9.7 | 12.9 | 0.00 | 0.00 | 0.00 | 53 | 1013.8 |
| 20260504031610 | 26 | 34 | 9.7 | 12.9 | 0.00 | 0.00 | 0.00 | 55 | 1013.8 |
| 20260504025601 | 26 | 47 | 11.3 | 19.3 | 0.00 | 0.00 | 0.00 | 61 | 1014.0 |
| 20260504025100 | 25 | 43 | 11.3 | 16.1 | 0.00 | 0.00 | 0.00 | 63 | 1014.1 |
| 20260504024056 | 25 | 23 | 9.7 | 12.9 | 0.00 | 0.00 | 0.00 | 58 | 1014.2 |
| 20260504023554 | 25 | 50 | 14.5 | 19.3 | 0.00 | 0.00 | 0.00 | 66 | 1014.3 |
| 20260504022549 | 24 | 54 | 16.1 | 20.9 | 0.00 | 0.00 | 0.00 | 67 | 1014.5 |
| 20260504022047 | 25 | 59 | 17.7 | 22.5 | 0.00 | 0.00 | 0.00 | 66 | 1014.6 |
| 20260504021546 | 25 | 53 | 14.5 | 20.9 | 0.00 | 0.00 | 0.00 | 66 | 1014.7 |
| 20260504021044 | 25 | 52 | 14.5 | 19.3 | 0.00 | 0.00 | 0.00 | 65 | 1014.8 |
| 20260504020542 | 25 | 56 | 16.1 | 19.3 | 0.00 | 0.00 | 0.00 | 67 | 1014.9 |
| 20260504020041 | 24 | 47 | 12.9 | 17.7 | 0.00 | 0.00 | 0.00 | 67 | 1015.1 |
| 20260504015540 | 24 | 46 | 12.9 | 19.3 | 0.00 | 0.00 | 0.00 | 66 | 1015.1 |
| 20260504015038 | 23 | 43 | 11.3 | 16.1 | 0.00 | 0.00 | 0.00 | 69 | 1015.2 |
| 20260504014536 | 23 | 51 | 14.5 | 22.5 | 0.00 | 0.00 | 0.00 | 68 | 1015.3 |
| 20260504014033 | 24 | 51 | 14.5 | 20.9 | 0.00 | 0.00 | 0.00 | 65 | 1015.3 |
| 20260504013532 | 24 | 55 | 16.1 | 20.9 | 0.00 | 0.00 | 0.00 | 68 | 1015.4 |
| 20260504012527 | 24 | 62 | 19.3 | 24.1 | 0.00 | 0.00 | 0.00 | 65 | 1015.5 |
| 20260504012026 | 24 | 54 | 17.7 | 24.1 | 0.00 | 0.00 | 0.00 | 65 | 1015.5 |
| 20260504011022 | 23 | 42 | 11.3 | 19.3 | 0.00 | 0.00 | 0.00 | 66 | 1015.6 |
| 20260504010519 | 24 | 49 | 12.9 | 19.3 | 0.00 | 0.00 | 0.00 | 65 | 1015.7 |
| 20260504010017 | 25 | 41 | 9.7 | 14.5 | 0.00 | 0.00 | 0.00 | 63 | 1015.6 |
| 20260504005515 | 25 | 30 | 9.7 | 17.7 | 0.00 | 0.00 | 0.00 | 60 | 1015.7 |
| 20260504005014 | 25 | 37 | 9.7 | 14.5 | 0.00 | 0.00 | 0.00 | 60 | 1015.8 |
| 20260504004513 | 25 | 36 | 8.0 | 12.9 | 0.00 | 0.00 | 0.00 | 61 | 1015.8 |
| 20260504003004 | 23 | 26 | 11.3 | 17.7 | 0.00 | 0.00 | 0.00 | 65 | 1015.9 |
| 20260504002502 | 23 | 21 | 9.7 | 17.7 | 0.00 | 0.00 | 0.00 | 63 | 1016.0 |
| 20260504002000 | 23 | 35 | 8.0 | 12.9 | 0.00 | 0.00 | 0.00 | 66 | 1016.0 |
| 20260504001459 | 23 | 23 | 9.7 | 17.7 | 0.00 | 0.00 | 0.00 | 65 | 1016.1 |
| 20260504000955 | 23 | 33 | 9.7 | 19.3 | 0.00 | 0.00 | 0.00 | 66 | 1016.2 |